www.pogodaiklimat.ru

Погода и климат >> Архив погоды >> Япония >> Hiroshima


АРХИВ ПОГОДЫ в Hiroshima

Время (UTC), дата Ветер
(напр.,м/с)
 
Видим.   Явления Облачность Т
(С)
Тd
(С)
f
(%)
Тe
(С)
Тes
(С)
Комфортность P
(гПа)
Po
(гПа)
Тmin
(С)
Tmax
(С)
R
(мм)
R24
(мм)
S
(см)
14 11.10 С 2 н/о н/о +15.0 +5.8 54 +15 +15 по сезону 1021.0 1014.5
13 11.10 СВ 3 н/о н/о +15.6 +4.7 48 +15 +15 прохладно 1020.9 1014.4
15 11.10 С 2 н/о н/о +14.7 +6.3 57 +15 +15 прохладно 1021.4 1014.9
16 11.10 С 2 н/о н/о +14.3 +6.7 60 +14 +14 по сезону 1021.5 1015.0
17 11.10 С 2 н/о н/о +13.9 +6.8 62 +14 +14 по сезону 1021.4 1014.9
18 11.10 С 3 20 км 9/1
[Cu hum Ac trans Ci sp]
+13.6 +6.9 64 +13 +13 прохладно 1021.7 1015.2
20 11.10 С 2 н/о н/о +12.8 +6.8 67 +12 +12 прохладно 1022.0 1015.5
19 11.10 С 2 н/о н/о +13.2 +6.8 65 +13 +13 прохладно 1021.8 1015.3
21 11.10 С 3 20 км 9/8
[Sc Ci fib]
+12.7 +6.5 66 +11 +11 холодно 1022.8 1016.3
22 11.10 С 2 н/о н/о +12.4 +6.7 68 +12 +12 холодно 1023.4 1016.8
23 11.10 С 3 н/о н/о +13.0 +6.8 66 +12 +12 холодно 1023.3 1016.8
00 12.10 С 2 30 км 9/3
[Cu Sc Ci sp]
+15.0 +5.5 53 +15 +17 прохладно 1023.5 1017.0 +12.2
02 12.10 С 2 н/о н/о +18.5 +6.4 45 +19 +19 прохладно 1023.1 1016.7
01 12.10 С 3 н/о н/о +16.9 +5.2 46 +17 +17 прохладно 1023.4 1017.0
03 12.10 С 5 30 км 9/4
[Cu Sc Ci fib]
+20.1 +5.0 37 +21 +24 комфорт 1022.1 1015.7
04 12.10 СВ 5 н/о н/о +20.2 +3.9 34 +21 +21 комфорт 1021.9 1015.5
05 12.10 С 6 н/о н/о +21.3 +4.8 34 +22 +22 комфорт 1021.4 1015.1
06 12.10 С 7 30 км 9/3
[Cu Sc Ci sp]
+20.6 +6.2 39 +21 +22 комфорт 1020.8 1014.5
08 12.10 С 4 н/о н/о +19.0 +7.5 47 +20 +20 прохладно 1022.3 1015.9
07 12.10 С 6 н/о н/о +19.8 +6.2 41 +20 +20 по сезону 1021.6 1015.2
09 12.10 СВ 5 40 км 9/4
[Cu Sc Ac trans Ci fib]
+18.4 +7.8 50 +18 +18 прохладно 1022.8 1016.4
10 12.10 С 4 н/о н/о +17.7 +7.7 52 +18 +18 по сезону 1023.4 1017.0
11 12.10 С 4 н/о н/о +16.9 +8.3 57 +17 +17 по сезону 1023.7 1017.3
12 12.10 С 2 30 км 4/0
[Ci fib]
+16.4 +8.4 59 +17 +17 по сезону 1024.1 1017.6 +21.7
14 12.10 СВ 4 н/о н/о +15.2 +8.4 64 +14 +14 прохладно 1023.9 1017.4
13 12.10 С 4 н/о н/о +16.0 +8.7 62 +15 +15 по сезону 1024.0 1017.5
15 12.10 С 5 н/о н/о +14.7 +8.4 66 +13 +13 прохладно 1023.9 1017.4
16 12.10 С 5 н/о н/о +14.4 +8.4 67 +13 +13 по сезону 1023.9 1017.4
17 12.10 СВ 4 н/о н/о +14.3 +7.8 65 +13 +13 по сезону 1024.2 1017.7
18 12.10 С 4 30 км 6/3
[Cu hum Ci fib]
+13.5 +8.1 70 +12 +12 прохладно 1023.8 1017.3
20 12.10 С 5 н/о н/о +13.0 +8.3 73 +11 +11 холодно 1024.0 1017.5
19 12.10 С 2 н/о н/о +13.2 +8.3 72 +13 +13 прохладно 1023.6 1017.1
21 12.10 С 4 30 км 8/3
[Cu Sc Ac trans Ci sp]
+12.8 +8.3 74 +11 +11 холодно 1024.4 1017.9
22 12.10 С 4 н/о н/о +13.1 +8.2 72 +12 +12 холодно 1024.6 1018.1
23 12.10 С 2 н/о н/о +14.0 +8.6 70 +14 +14 прохладно 1024.3 1017.8
00 13.10 С 2 40 км 1/1
[Cu Sc]
+16.2 +8.7 61 +17 +21 по сезону 1024.4 1017.9 +12.6
02 13.10 С 3 н/о н/о +19.4 +6.5 43 +20 +20 по сезону 1023.2 1016.8
01 13.10 С 3 н/о н/о +18.4 +7.2 48 +19 +19 прохладно 1023.6 1017.2
03 13.10 С 5 40 км 8/8
[Cu hum]
+20.9 +6.1 38 +22 +23 комфорт 1022.1 1015.8
04 13.10 С 5 н/о н/о +20.6 +5.0 36 +21 +21 комфорт 1021.2 1014.9
05 13.10 СВ 4 н/о н/о +21.1 +5.1 35 +22 +22 комфорт 1020.6 1014.3
06 13.10 С 3 35 км 6/6
[Cu hum]
+21.5 +6.2 37 +22 +24 комфорт 1020.5 1014.2
08 13.10 Ю 3 н/о н/о +20.8 +7.4 42 +22 +22 комфорт 1020.5 1014.2
07 13.10 Ю 3 н/о н/о +21.5 +6.6 38 +22 +22 комфорт 1020.6 1014.3
09 13.10 Ю 3 35 км 1/1
[Cu hum]
+20.3 +7.7 44 +22 +22 комфорт 1020.8 1014.5
10 13.10 С 3 н/о н/о +19.2 +8.2 49 +20 +20 тепло 1021.5 1015.1
11 13.10 С 4 н/о н/о +18.4 +9.5 56 +19 +19 по сезону 1021.7 1015.3
12 13.10 С 5 25 км 1/1
[Cu hum]
+17.8 +9.7 59 +17 +17 по сезону 1021.8 1015.4 +23.3
14 13.10 С 4 н/о н/о +16.3 +10.0 66 +16 +16 по сезону 1022.1 1015.7
13 13.10 С 4 н/о н/о +16.9 +10.1 64 +16 +16 по сезону 1021.9 1015.5
15 13.10 С 4 н/о н/о +15.5 +10.1 70 +15 +15 по сезону 1022.0 1015.5
16 13.10 С 5 н/о н/о +14.9 +9.9 72 +14 +14 по сезону 1021.4 1014.9
17 13.10 С 6 н/о н/о +14.6 +9.6 72 +13 +13 по сезону 1021.3 1014.8
18 13.10 С 5 20 км ясно +14.1 +9.3 73 +13 +13 прохладно 1021.0 1014.5
20 13.10 С 5 н/о н/о +13.3 +9.0 75 +11 +11 холодно 1021.1 1014.6
19 13.10 С 5 н/о н/о +13.6 +9.3 75 +12 +12 прохладно 1021.0 1014.5
21 13.10 С 6 20 км 3/1
[Sc Ci sp]
+12.8 +8.9 77 +10 +10 холодно 1021.3 1014.8
22 13.10 С 4 н/о н/о +12.7 +8.8 77 +11 +11 холодно 1021.8 1015.3
23 13.10 С 5 н/о н/о +13.8 +8.6 71 +12 +12 холодно 1022.4 1015.9
00 14.10 С 3 30 км 3/1
[Cu hum Ci sp]
+15.8 +8.8 63 +15 +18 прохладно 1022.4 1015.9 +12.6
02 14.10 СЗ 2 н/о н/о +21.1 +8.4 44 +22 +22 комфорт 1021.5 1015.2
01 14.10 С 3 н/о н/о +18.3 +8.6 53 +19 +19 по сезону 1021.9 1015.5
03 14.10 С 3 35 км 5/3
[Cu med, cong Ci fib]
+22.1 +7.5 39 +23 +29 комфорт 1020.7 1014.4
04 14.10 С 3 н/о н/о +22.5 +7.5 38 +23 +23 комфорт 1019.7 1013.4
05 14.10 ЮЗ 3 н/о н/о +22.5 +8.2 40 +24 +24 комфорт 1019.4 1013.1
06 14.10 ЮЗ 4 35 км 8/3
[Cu med, cong Ci sp]
+22.5 +8.2 40 +24 +26 комфорт 1019.4 1013.1
08 14.10 Ю 3 н/о н/о +21.6 +9.5 46 +23 +23 комфорт 1019.4 1013.1
07 14.10 Ю 3 н/о н/о +21.9 +8.8 43 +23 +23 комфорт 1019.3 1013.0
09 14.10 ЮЗ 3 35 км 9/1
[Sc Ac trans Ci sp]
+21.2 +9.8 48 +23 +23 комфорт 1019.7 1013.4
10 14.10 Ю 2 н/о н/о +21.1 +10.3 50 +23 +23 комфорт 1020.2 1013.9
11 14.10 С 3 н/о н/о +19.5 +11.5 60 +21 +21 комфорт 1020.0 1013.6
12 14.10 С 3 30 км 9/1
[Cu hum Ac As Ci sp]
+19.1 +11.4 61 +20 +20 тепло 1020.3 1013.9 +23.5
14 14.10 С 4 н/о н/о +18.3 +11.2 63 +19 +19 тепло 1020.1 1013.7
13 14.10 С 4 н/о н/о +18.5 +11.3 63 +19 +19 тепло 1020.5 1014.1
15 14.10 С 4 н/о н/о +17.9 +11.2 65 +18 +18 тепло 1020.0 1013.6
16 14.10 С 4 н/о н/о +17.4 +11.2 67 +17 +17 тепло 1019.9 1013.5
17 14.10 С 4 н/о н/о +17.2 +11.0 67 +17 +17 тепло 1020.1 1013.7
18 14.10 С 3 30 км 9/1
[Cu hum Ac As]
+16.9 +11.2 69 +17 +17 тепло 1019.7 1013.3
20 14.10 С 5 н/о н/о +16.6 +10.7 68 +16 +16 по сезону 1019.4 1013.0
19 14.10 С 4 н/о н/о +16.7 +10.8 68 +16 +16 по сезону 1019.4 1013.0
21 14.10 С 4 25 км 9/3
[Cu Sc Ac As Ci sp]
+16.4 +10.7 69 +16 +16 по сезону 1019.6 1013.2
22 14.10 С 5 н/о н/о +16.0 +10.8 71 +15 +15 по сезону 1019.6 1013.2
23 14.10 С 4 н/о н/о +16.5 +10.8 69 +16 +16 по сезону 1019.6 1013.2
00 15.10 С 4 30 км 8/1
[Cu hum Ac trans Ci sp]
+17.7 +10.3 62 +18 +19 по сезону 1019.4 1013.0 +16.0
02 15.10 Ю 1 н/о н/о +22.0 +10.5 48 +24 +24 комфорт 1018.2 1011.9
01 15.10 СВ 2 н/о н/о +20.1 +10.2 53 +22 +22 комфорт 1018.8 1012.5
03 15.10 Ю 2 30 км 9/3
[Cu med, cong Ci sp]
+22.8 +8.5 40 +24 +31 комфорт 1017.8 1011.5
04 15.10 Ю 3 н/о н/о +23.3 +8.2 38 +24 +24 комфорт 1017.1 1010.9
05 15.10 ЮЗ 3 н/о н/о +23.8 +8.6 38 +24 +24 комфорт 1016.3 1010.1
06 15.10 ЮЗ 4 30 км 6/1
[Cu med, cong Ci fib]
+23.5 +7.6 36 +24 +27 комфорт 1015.9 1009.7
08 15.10 ЮЗ 4 н/о н/о +22.1 +10.9 49 +24 +24 комфорт 1015.9 1009.6
07 15.10 ЮЗ 4 н/о н/о +23.5 +10.2 43 +25 +25 комфорт 1016.0 1009.8
09 15.10 ЮЗ 2 30 км 8/3
[Cu med, cong Ac trans Ci fib]
+21.6 +11.6 53 +24 +24 комфорт 1016.2 1009.9
10 15.10 С 4 н/о н/о +20.9 +10.1 50 +23 +23 комфорт 1017.0 1010.7
11 15.10 СВ 4 н/о н/о +19.7 +9.6 52 +21 +21 комфорт 1017.5 1011.2
12 15.10 С 5 30 км 8/3
[Cu hum Ci fib]
+18.7 +9.8 56 +19 +19 тепло 1017.0 1010.6 +24.2
14 15.10 С 5 н/о н/о +17.2 +9.4 60 +17 +17 по сезону 1017.5 1011.1
13 15.10 СВ 4 н/о н/о +17.8 +9.4 58 +18 +18 тепло 1017.7 1011.3
15 15.10 С 5 н/о н/о +16.8 +9.3 61 +16 +16 по сезону 1017.2 1010.8
16 15.10 СВ 5 н/о н/о +16.5 +9.2 62 +16 +16 тепло 1017.2 1010.8
17 15.10 С 6 н/о н/о +16.1 +9.1 63 +15 +15 по сезону 1017.2 1010.8
18 15.10 С 5 25 км 9/1
[Cu hum Ci fib]
+15.7 +9.2 65 +15 +15 по сезону 1016.8 1010.4
20 15.10 С 5 н/о н/о +15.4 +9.5 68 +14 +14 по сезону 1016.1 1009.7
19 15.10 С 5 н/о н/о +15.4 +9.3 67 +14 +14 по сезону 1016.2 1009.8
21 15.10 С 5 25 км 9/1
[Sc As op Ci fib]
+15.2 +9.3 68 +14 +14 по сезону 1016.1 1009.7
22 15.10 С 5 н/о н/о +15.4 +9.5 68 +14 +14 прохладно 1015.9 1009.5
23 15.10 С 4 н/о н/о +16.0 +9.7 66 +15 +15 по сезону 1016.4 1010.0
00 16.10 СВ 4 30 км 9/1
[Cu Sc Ci sp]
+16.7 +9.6 63 +16 +18 по сезону 1016.3 1009.9 +14.9
02 16.10 С 4 н/о н/о +21.8 +10.3 48 +24 +24 комфорт 1014.2 1007.9
01 16.10 С 5 н/о н/о +19.3 +9.8 54 +20 +20 по сезону 1015.3 1009.0
03 16.10 З 2 30 км 8/3
[Cu Sc Ac trans Ci fib]
+22.3 +10.5 47 +24 +29 комфорт 1013.0 1006.8
04 16.10 СЗ 1 н/о н/о +22.3 +10.5 47 +24 +24 комфорт 1012.4 1006.2
05 16.10 С 1 н/о н/о +22.7 +10.8 47 +25 +25 комфорт 1011.5 1005.3
06 16.10 Ю 2 25 км 9/3
[Cu med, cong Ac trans Ci fib]
+22.6 +11.7 50 +25 +27 комфорт 1011.0 1004.8
08 16.10 ЮЗ 4 н/о н/о +21.4 +12.5 57 +24 +24 комфорт 1011.7 1005.4
07 16.10 З 3 н/о н/о +22.2 +12.5 54 +25 +25 комфорт 1011.3 1005.1
09 16.10 С 4 15 км слабый дождь 10/6
[Frnb Ac As]
+19.4 +13.4 68 +21 +21 комфорт 1011.9 1005.6
10 16.10 СВ 3 н/о н/о +18.9 +12.9 68 +20 +20 тепло 1012.0 1005.7
11 16.10 С 4 н/о н/о +18.3 +12.5 69 +18 +18 по сезону 1012.5 1006.2
12 16.10 СВ 4 15 км слабый дождь 10/1
[Frnb Ac As]
+17.7 +12.2 70 +18 +18 по сезону 1012.7 1006.3 +23.3 0.0
14 16.10 СВ 4 н/о н/о +17.5 +12.0 70 +17 +17 тепло 1012.7 1006.3
13 16.10 С 3 н/о н/о +17.6 +12.5 72 +18 +18 тепло 1012.8 1006.4
15 16.10 СВ 4 н/о н/о +17.3 +11.6 69 +17 +17 по сезону 1012.4 1006.0
16 16.10 С 4 н/о н/о +17.1 +11.4 69 +17 +17 тепло 1012.1 1005.7
17 16.10 СВ 4 н/о н/о +16.7 +11.8 73 +16 +16 тепло 1012.2 1005.8
18 16.10 СВ 4 15 км {дождь} 10/0
[Ac As]
+17.0 +11.1 68 +17 +17 тепло 1012.1 1005.7 0.0
20 16.10 СВ 3 н/о н/о +15.8 +12.6 81 +15 +15 по сезону 1012.4 1006.0
19 16.10 С 3 н/о н/о +16.4 +11.6 73 +16 +16 по сезону 1012.2 1005.8
21 16.10 СВ 2 15 км {дождь} 3/1
[Cu Sc Ci sp]
+15.7 +11.3 75 +16 +16 по сезону 1012.7 1006.3
22 16.10 С 3 н/о н/о +15.3 +11.5 78 +15 +15 по сезону 1013.5 1007.1
23 16.10 С 3 н/о н/о +15.9 +11.7 76 +16 +16 по сезону 1013.8 1007.4
00 17.10 С 3 15 км {дождь} 1/1
[Cu hum Ac trans Ci fib]
+17.4 +11.0 66 +18 +21 тепло 1013.7 1007.3 +15.2 0.5
02 17.10 С 3 н/о н/о +21.4 +8.7 44 +23 +23 комфорт 1013.1 1006.8
01 17.10 С 3 н/о н/о +19.7 +9.9 53 +21 +21 комфорт 1013.4 1007.1
03 17.10 СВ 3 20 км 9/3
[Cu med, cong Ci sp]
+22.2 +7.6 39 +23 +29 комфорт 1012.5 1006.3
04 17.10 СВ 4 н/о н/о +22.4 +6.6 36 +23 +23 комфорт 1011.3 1005.1
05 17.10 СВ 3 н/о н/о +22.3 +7.3 38 +23 +23 комфорт 1011.1 1004.9
06 17.10 СЗ 2 20 км 9/8
[Cu med, cong Ac trans Ci sp]
+22.8 +7.0 36 +24 +24 комфорт 1011.4 1005.2
08 17.10 Ю 4 н/о н/о +21.5 +10.1 48 +23 +23 комфорт 1012.2 1005.9
07 17.10 Ю 3 н/о н/о +22.2 +10.4 47 +24 +24 комфорт 1011.8 1005.6
09 17.10 Ю 3 20 км 9/8
[Cu med, cong Ac trans Ci sp]
+21.2 +9.5 47 +23 +23 комфорт 1012.6 1006.3
10 17.10 ЮВ 2 н/о н/о +20.9 +11.0 53 +24 +24 комфорт 1013.1 1006.8
11 17.10 С 4 н/о н/о +20.0 +9.6 51 +21 +21 комфорт 1013.6 1007.3
12 17.10 С 5 20 км 9/6
[Cu med, cong Ci fib]
+18.9 +9.7 55 +19 +19 тепло 1014.0 1007.7 +23.5 0.0
14 17.10 С 6 н/о н/о +17.1 +10.0 63 +16 +16 по сезону 1014.0 1007.6
13 17.10 С 4 н/о н/о +17.9 +9.8 59 +18 +18 тепло 1014.1 1007.7
15 17.10 С 3 н/о н/о +16.5 +10.1 66 +16 +16 по сезону 1013.9 1007.5
16 17.10 С 5 н/о н/о +16.0 +9.9 67 +15 +15 тепло 1014.2 1007.8
17 17.10 С 5 н/о н/о +15.7 +9.8 68 +15 +15 по сезону 1014.4 1008.0
18 17.10 С 5 20 км 6/3
[Cu hum Ac trans Ci fib]
+15.3 +9.7 69 +14 +14 по сезону 1014.3 1007.9
20 17.10 С 5 н/о н/о +15.0 +9.6 70 +14 +14 по сезону 1014.9 1008.5
19 17.10 С 5 н/о н/о +15.1 +9.7 70 +14 +14 по сезону 1014.6 1008.2
21 17.10 С 6 20 км 9/8
[Cu med, cong Ac trans Ci fib]
+14.9 +9.7 71 +13 +13 прохладно 1015.1 1008.7
22 17.10 С 5 н/о н/о +14.9 +9.9 72 +13 +13 прохладно 1015.5 1009.1
23 17.10 С 5 н/о н/о +15.5 +10.1 70 +14 +14 по сезону 1015.9 1009.5
00 18.10 С 3 20 км 8/4
[Cu med, cong Ac trans Ci sp]
+17.3 +10.4 64 +17 +19 по сезону 1016.0 1009.6 +14.6
02 18.10 СВ 1 н/о н/о +20.9 +9.5 48 +24 +24 комфорт 1015.5 1009.2
01 18.10 СЗ 1 н/о н/о +19.4 +10.9 58 +22 +22 комфорт 1015.8 1009.5
03 18.10 В 1 25 км 6/6
[Cu med, cong]
+22.8 +10.3 45 +25 +30 комфорт 1014.9 1008.7
04 18.10 ЮЗ 3 н/о н/о +22.9 +9.3 42 +24 +24 комфорт 1014.1 1007.9
05 18.10 ЮЗ 4 н/о н/о +22.6 +8.7 41 +24 +24 комфорт 1013.7 1007.5
06 18.10 ЮЗ 4 25 км 3/3
[Cu Sc]
+22.7 +9.5 43 +24 +27 комфорт 1013.8 1007.6
08 18.10 С 3 н/о н/о +20.2 +9.2 49 +22 +22 комфорт 1014.9 1008.6
07 18.10 ЮЗ 4 н/о н/о +22.4 +9.9 45 +24 +24 комфорт 1014.4 1008.1
09 18.10 С 5 20 км {гроза} 4/4
[Cu med, cong]
+19.2 +11.5 61 +20 +20 по сезону 1015.2 1008.9
10 18.10 С 4 н/о н/о +18.1 +12.1 68 +18 +18 тепло 1015.9 1009.5
11 18.10 С 5 н/о н/о +17.4 +11.7 69 +17 +17 тепло 1016.1 1009.7

 

Местоположение метеостанции Hiroshima (Япония): широта 34.40 долгота 132.46 высота над уровнем моря 53 м.

В архиве по умолчанию представлена погода в Hiroshima за последнюю неделю. Архивные данные за месяц целиком и за предыдущие месяцы, начиная с января 2011 года, Вы можете получить, выбрав интересующий диапазон дат из раскрывающегося списка и нажав кнопку "Ввод!".


*Определитесь, кто Вы:
робот инопланетянин человек

Внимание! Время в таблицах - всемирное. Для получения местного времени необходимо прибавить поправку, которая в Hiroshima равна 9 ч.

Смотрите также архив погоды в соседних городах и на ближайших метеорологических станциях:

Погода в Kure (Япония) (21 км)
Погода в Hamada (Япония) (67 км)
Погода в Matsuyama (Япония) (68 км)
Погода в Fukuyama (Япония) (73 км)
Погода в Yamaguchi (Япония) (96 км)
Погода в Hagi (Япония) (97 км)
Погода в Tadotsu (Япония) (119 км)
Погода в Matsue (Япония) (129 км)
Погода в Uwajima (Япония) (130 км)
Погода в Okayama (Япония) (136 км)

Пояснения к столбцам:

Ветер - указаны скорость ветра в м/с - средняя за 10 мин, порывы в срок и между сроками (в фигурных скобках) и направление, откуда дует ветер: С - северный, СВ - северо-восточный, В - восточный, ЮВ - юго-восточный, Ю - южный, ЮЗ - юго-западный, З - западный, СЗ - северо-западный.
Видимость - горизонтальная дальность видимости в метрах или километрах. При видимости от 1 до 10 км при отсутствии осадков обычно наблюдается дымка, при ухудшении видимости до 1 км и менее - туман. В сухую погоду видимость может ухудшаться дымом, пылью или мглою.
Явления - указаны атмосферные явления, наблюдавшиеся в срок или в последний час перед сроком; фигурными скобками обозначены явления, наблюдавшиеся между сроками (за 1-3 часа до срока); квадратными скобками обозначены град или гололедные отложения с указанием их диаметра в мм.
Облачность - указаны через наклонную черту общая и нижняя облачность в баллах и высота нижней границы облаков в метрах; квадратными скобками обозначены формы облаков: Ci - перистые, Cs - перисто-слоистые, Cc - перисто-кучевые, Ac - высококучевые, As - высокослоистые, Sc - слоисто-кучевые, Ns - слоисто-дождевые, Cu - кучевые, Cb - кучево-дождевые. Подробнее классификацию облаков см. в Атласе облаков (PDF).
T - Температура воздуха - температура, измеренная на высоте 2 м над землей.
Td - Температура точки росы - температура, при понижении до которой содержащийся в воздухе водяной пар достигнет насыщения.
f - Относительная влажность воздуха - влажноcть воздуха, измеренная на высоте 2 м над землей.
Te - Эффективная температура - температура, которую ощущает одетый по сезону человек в тени. Характеристика душности погоды. При расчете учитывается влияние влажности воздуха и скорости ветра на теплоощущения человека.
Tes - Эффективная температура на солнце - температура, которую ощущает человек, с поправкой на солнечный нагрев. Характеристика знойности погоды. Зависит от высоты солнца над горизонтом, облачности и скорости ветра. Ночью, в пасмурную погоду, а также при ветре 12 м/с и более поправка равна нулю.
P - Атмосферное давление - приведенное к уровню моря атмосферное давление.
Po - Атмосферное давление - измеренное на уровне метеостанции атмосферное давление.
Tmin - Минимальная температура - минимум температуры воздуха на высоте 2 м над землей.
Tmax - Максимальная температура - максимум температуры воздуха на высоте 2 м над землей.
R - Количество осадков - Количество выпавших осадков за период времени, мм. При наведении курсора мыши на число - период времени, за который выпало указанное количество осадков.
R24 - Количество осадков - Количество выпавших осадков за 24 часа, мм.
S - Снежный покров - Высота снежного покрова, см. При наведении курсора мыши на число - состояние снежного покрова и степень покрытия местности в баллах.